Index of /20260504/WXO-DD/model_gdps/15km/12/096
Name Last modified Size Description
Parent Directory -
20260504T12Z_MSC_GDPS_AbsoluteVorticity_IsbL-0200_LatLon0.15_PT096H.grib2 2026-05-04 16:44 1.2M
20260504T12Z_MSC_GDPS_AbsoluteVorticity_IsbL-0250_LatLon0.15_PT096H.grib2 2026-05-04 16:44 1.3M
20260504T12Z_MSC_GDPS_AbsoluteVorticity_IsbL-0500_LatLon0.15_PT096H.grib2 2026-05-04 16:44 1.5M
20260504T12Z_MSC_GDPS_AbsoluteVorticity_IsbL-0700_LatLon0.15_PT096H.grib2 2026-05-04 16:44 1.3M
20260504T12Z_MSC_GDPS_AbsoluteVorticity_IsbL-0850_LatLon0.15_PT096H.grib2 2026-05-04 16:44 1.6M
20260504T12Z_MSC_GDPS_AirTemp-Max_AGL-2m_LatLon0.15_PT096H.grib2 2026-05-04 16:44 742K
20260504T12Z_MSC_GDPS_AirTemp-Min_AGL-2m_LatLon0.15_PT096H.grib2 2026-05-04 16:44 792K
20260504T12Z_MSC_GDPS_AirTemp_AGL-120m_LatLon0.15_PT096H.grib2 2026-05-04 16:44 908K
20260504T12Z_MSC_GDPS_AirTemp_AGL-2m_LatLon0.15_PT096H.grib2 2026-05-04 16:44 1.0M
20260504T12Z_MSC_GDPS_AirTemp_AGL-40m_LatLon0.15_PT096H.grib2 2026-05-04 16:44 811K
20260504T12Z_MSC_GDPS_AirTemp_AGL-80m_LatLon0.15_PT096H.grib2 2026-05-04 16:44 800K
20260504T12Z_MSC_GDPS_AirTemp_IsbL-0001_LatLon0.15_PT096H.grib2 2026-05-04 16:44 662K
20260504T12Z_MSC_GDPS_AirTemp_IsbL-0005_LatLon0.15_PT096H.grib2 2026-05-04 16:44 693K
20260504T12Z_MSC_GDPS_AirTemp_IsbL-0010_LatLon0.15_PT096H.grib2 2026-05-04 16:44 704K
20260504T12Z_MSC_GDPS_AirTemp_IsbL-0020_LatLon0.15_PT096H.grib2 2026-05-04 16:44 788K
20260504T12Z_MSC_GDPS_AirTemp_IsbL-0030_LatLon0.15_PT096H.grib2 2026-05-04 16:44 837K
20260504T12Z_MSC_GDPS_AirTemp_IsbL-0050_LatLon0.15_PT096H.grib2 2026-05-04 16:44 803K
20260504T12Z_MSC_GDPS_AirTemp_IsbL-0100_LatLon0.15_PT096H.grib2 2026-05-04 16:44 961K
20260504T12Z_MSC_GDPS_AirTemp_IsbL-0150_LatLon0.15_PT096H.grib2 2026-05-04 16:44 1.0M
20260504T12Z_MSC_GDPS_AirTemp_IsbL-0175_LatLon0.15_PT096H.grib2 2026-05-04 16:44 1.0M
20260504T12Z_MSC_GDPS_AirTemp_IsbL-0200_LatLon0.15_PT096H.grib2 2026-05-04 16:44 1.0M
20260504T12Z_MSC_GDPS_AirTemp_IsbL-0225_LatLon0.15_PT096H.grib2 2026-05-04 16:44 968K
20260504T12Z_MSC_GDPS_AirTemp_IsbL-0250_LatLon0.15_PT096H.grib2 2026-05-04 16:44 1.0M
20260504T12Z_MSC_GDPS_AirTemp_IsbL-0275_LatLon0.15_PT096H.grib2 2026-05-04 16:44 1.0M
20260504T12Z_MSC_GDPS_AirTemp_IsbL-0300_LatLon0.15_PT096H.grib2 2026-05-04 16:44 1.0M
20260504T12Z_MSC_GDPS_AirTemp_IsbL-0350_LatLon0.15_PT096H.grib2 2026-05-04 16:44 928K
20260504T12Z_MSC_GDPS_AirTemp_IsbL-0400_LatLon0.15_PT096H.grib2 2026-05-04 16:44 941K
20260504T12Z_MSC_GDPS_AirTemp_IsbL-0450_LatLon0.15_PT096H.grib2 2026-05-04 16:44 966K
20260504T12Z_MSC_GDPS_AirTemp_IsbL-0500_LatLon0.15_PT096H.grib2 2026-05-04 16:44 766K
20260504T12Z_MSC_GDPS_AirTemp_IsbL-0550_LatLon0.15_PT096H.grib2 2026-05-04 16:44 799K
20260504T12Z_MSC_GDPS_AirTemp_IsbL-0600_LatLon0.15_PT096H.grib2 2026-05-04 16:44 893K
20260504T12Z_MSC_GDPS_AirTemp_IsbL-0650_LatLon0.15_PT096H.grib2 2026-05-04 16:44 922K
20260504T12Z_MSC_GDPS_AirTemp_IsbL-0700_LatLon0.15_PT096H.grib2 2026-05-04 16:44 962K
20260504T12Z_MSC_GDPS_AirTemp_IsbL-0750_LatLon0.15_PT096H.grib2 2026-05-04 16:44 1.0M
20260504T12Z_MSC_GDPS_AirTemp_IsbL-0800_LatLon0.15_PT096H.grib2 2026-05-04 16:44 1.1M
20260504T12Z_MSC_GDPS_AirTemp_IsbL-0850_LatLon0.15_PT096H.grib2 2026-05-04 16:44 1.1M
20260504T12Z_MSC_GDPS_AirTemp_IsbL-0875_LatLon0.15_PT096H.grib2 2026-05-04 16:44 1.2M
20260504T12Z_MSC_GDPS_AirTemp_IsbL-0900_LatLon0.15_PT096H.grib2 2026-05-04 16:44 1.2M
20260504T12Z_MSC_GDPS_AirTemp_IsbL-0925_LatLon0.15_PT096H.grib2 2026-05-04 16:44 1.1M
20260504T12Z_MSC_GDPS_AirTemp_IsbL-0950_LatLon0.15_PT096H.grib2 2026-05-04 16:44 1.1M
20260504T12Z_MSC_GDPS_AirTemp_IsbL-0970_LatLon0.15_PT096H.grib2 2026-05-04 16:44 1.1M
20260504T12Z_MSC_GDPS_AirTemp_IsbL-0985_LatLon0.15_PT096H.grib2 2026-05-04 16:44 1.1M
20260504T12Z_MSC_GDPS_AirTemp_IsbL-1000_LatLon0.15_PT096H.grib2 2026-05-04 16:44 1.1M
20260504T12Z_MSC_GDPS_AirTemp_IsbL-1015_LatLon0.15_PT096H.grib2 2026-05-04 16:44 1.1M
20260504T12Z_MSC_GDPS_Albedo_Sfc_LatLon0.15_PT096H.grib2 2026-05-04 16:44 240K
20260504T12Z_MSC_GDPS_CAPE_Sfc_LatLon0.15_PT096H.grib2 2026-05-04 16:44 3.8M
20260504T12Z_MSC_GDPS_CIN_Sfc_LatLon0.15_PT096H.grib2 2026-05-04 16:44 2.9M
20260504T12Z_MSC_GDPS_CloudWater_EAtm_LatLon0.15_PT096H.grib2 2026-05-04 16:44 542K
20260504T12Z_MSC_GDPS_ConvectivePrecip-Accum_Sfc_LatLon0.15_PT096H.grib2 2026-05-04 16:44 3.3M
20260504T12Z_MSC_GDPS_DewPointDepression_AGL-2m_LatLon0.15_PT096H.grib2 2026-05-04 16:44 759K
20260504T12Z_MSC_GDPS_DewPointDepression_IsbL-0010_LatLon0.15_PT096H.grib2 2026-05-04 16:44 86K
20260504T12Z_MSC_GDPS_DewPointDepression_IsbL-0020_LatLon0.15_PT096H.grib2 2026-05-04 16:44 80K
20260504T12Z_MSC_GDPS_DewPointDepression_IsbL-0030_LatLon0.15_PT096H.grib2 2026-05-04 16:44 91K
20260504T12Z_MSC_GDPS_DewPointDepression_IsbL-0050_LatLon0.15_PT096H.grib2 2026-05-04 16:44 383K
20260504T12Z_MSC_GDPS_DewPointDepression_IsbL-0100_LatLon0.15_PT096H.grib2 2026-05-04 16:44 400K
20260504T12Z_MSC_GDPS_DewPointDepression_IsbL-0150_LatLon0.15_PT096H.grib2 2026-05-04 16:44 490K
20260504T12Z_MSC_GDPS_DewPointDepression_IsbL-0175_LatLon0.15_PT096H.grib2 2026-05-04 16:44 591K
20260504T12Z_MSC_GDPS_DewPointDepression_IsbL-0200_LatLon0.15_PT096H.grib2 2026-05-04 16:44 697K
20260504T12Z_MSC_GDPS_DewPointDepression_IsbL-0225_LatLon0.15_PT096H.grib2 2026-05-04 16:44 779K
20260504T12Z_MSC_GDPS_DewPointDepression_IsbL-0250_LatLon0.15_PT096H.grib2 2026-05-04 16:44 874K
20260504T12Z_MSC_GDPS_DewPointDepression_IsbL-0275_LatLon0.15_PT096H.grib2 2026-05-04 16:44 893K
20260504T12Z_MSC_GDPS_DewPointDepression_IsbL-0300_LatLon0.15_PT096H.grib2 2026-05-04 16:44 937K
20260504T12Z_MSC_GDPS_DewPointDepression_IsbL-0350_LatLon0.15_PT096H.grib2 2026-05-04 16:44 961K
20260504T12Z_MSC_GDPS_DewPointDepression_IsbL-0400_LatLon0.15_PT096H.grib2 2026-05-04 16:44 1.0M
20260504T12Z_MSC_GDPS_DewPointDepression_IsbL-0450_LatLon0.15_PT096H.grib2 2026-05-04 16:44 1.0M
20260504T12Z_MSC_GDPS_DewPointDepression_IsbL-0500_LatLon0.15_PT096H.grib2 2026-05-04 16:44 1.0M
20260504T12Z_MSC_GDPS_DewPointDepression_IsbL-0550_LatLon0.15_PT096H.grib2 2026-05-04 16:44 1.0M
20260504T12Z_MSC_GDPS_DewPointDepression_IsbL-0600_LatLon0.15_PT096H.grib2 2026-05-04 16:44 1.0M
20260504T12Z_MSC_GDPS_DewPointDepression_IsbL-0650_LatLon0.15_PT096H.grib2 2026-05-04 16:44 1.1M
20260504T12Z_MSC_GDPS_DewPointDepression_IsbL-0700_LatLon0.15_PT096H.grib2 2026-05-04 16:44 1.1M
20260504T12Z_MSC_GDPS_DewPointDepression_IsbL-0750_LatLon0.15_PT096H.grib2 2026-05-04 16:44 1.1M
20260504T12Z_MSC_GDPS_DewPointDepression_IsbL-0800_LatLon0.15_PT096H.grib2 2026-05-04 16:44 1.2M
20260504T12Z_MSC_GDPS_DewPointDepression_IsbL-0850_LatLon0.15_PT096H.grib2 2026-05-04 16:44 1.2M
20260504T12Z_MSC_GDPS_DewPointDepression_IsbL-0875_LatLon0.15_PT096H.grib2 2026-05-04 16:44 1.1M
20260504T12Z_MSC_GDPS_DewPointDepression_IsbL-0900_LatLon0.15_PT096H.grib2 2026-05-04 16:44 1.1M
20260504T12Z_MSC_GDPS_DewPointDepression_IsbL-0925_LatLon0.15_PT096H.grib2 2026-05-04 16:44 1.0M
20260504T12Z_MSC_GDPS_DewPointDepression_IsbL-0950_LatLon0.15_PT096H.grib2 2026-05-04 16:44 1.0M
20260504T12Z_MSC_GDPS_DewPointDepression_IsbL-0970_LatLon0.15_PT096H.grib2 2026-05-04 16:44 1.0M
20260504T12Z_MSC_GDPS_DewPointDepression_IsbL-0985_LatLon0.15_PT096H.grib2 2026-05-04 16:44 1.0M
20260504T12Z_MSC_GDPS_DewPointDepression_IsbL-1000_LatLon0.15_PT096H.grib2 2026-05-04 16:44 971K
20260504T12Z_MSC_GDPS_DewPointDepression_IsbL-1015_LatLon0.15_PT096H.grib2 2026-05-04 16:44 915K
20260504T12Z_MSC_GDPS_DewPoint_AGL-2m_LatLon0.15_PT096H.grib2 2026-05-04 16:44 616K
20260504T12Z_MSC_GDPS_DownwardLongwaveRadiationFlux-Accum_Sfc_LatLon0.15_PT096H.grib2 2026-05-04 16:44 724K
20260504T12Z_MSC_GDPS_DownwardShortwaveRadiationFlux-Accum_NTAtm_LatLon0.15_PT096H.grib2 2026-05-04 16:44 216K
20260504T12Z_MSC_GDPS_DownwardShortwaveRadiationFlux-Accum_Sfc_LatLon0.15_PT096H.grib2 2026-05-04 16:44 939K
20260504T12Z_MSC_GDPS_FreezingRain-Accum12h_Sfc_LatLon0.15_PT096H.grib2 2026-05-04 16:44 97K
20260504T12Z_MSC_GDPS_FreezingRain-Accum1h_Sfc_LatLon0.15_PT096H.grib2 2026-05-04 16:44 52K
20260504T12Z_MSC_GDPS_FreezingRain-Accum24h_Sfc_LatLon0.15_PT096H.grib2 2026-05-04 16:44 161K
20260504T12Z_MSC_GDPS_FreezingRain-Accum3h_Sfc_LatLon0.15_PT096H.grib2 2026-05-04 16:44 56K
20260504T12Z_MSC_GDPS_FreezingRain-Accum6h_Sfc_LatLon0.15_PT096H.grib2 2026-05-04 16:44 69K
20260504T12Z_MSC_GDPS_FreezingRain-Accum_Sfc_LatLon0.15_PT096H.grib2 2026-05-04 16:44 357K
20260504T12Z_MSC_GDPS_GeopotentialHeight_IsbL-0001_LatLon0.15_PT096H.grib2 2026-05-04 16:44 438K
20260504T12Z_MSC_GDPS_GeopotentialHeight_IsbL-0005_LatLon0.15_PT096H.grib2 2026-05-04 16:44 490K
20260504T12Z_MSC_GDPS_GeopotentialHeight_IsbL-0010_LatLon0.15_PT096H.grib2 2026-05-04 16:44 477K
20260504T12Z_MSC_GDPS_GeopotentialHeight_IsbL-0020_LatLon0.15_PT096H.grib2 2026-05-04 16:44 415K
20260504T12Z_MSC_GDPS_GeopotentialHeight_IsbL-0030_LatLon0.15_PT096H.grib2 2026-05-04 16:44 422K
20260504T12Z_MSC_GDPS_GeopotentialHeight_IsbL-0050_LatLon0.15_PT096H.grib2 2026-05-04 16:44 579K
20260504T12Z_MSC_GDPS_GeopotentialHeight_IsbL-0100_LatLon0.15_PT096H.grib2 2026-05-04 16:44 616K
20260504T12Z_MSC_GDPS_GeopotentialHeight_IsbL-0150_LatLon0.15_PT096H.grib2 2026-05-04 16:44 637K
20260504T12Z_MSC_GDPS_GeopotentialHeight_IsbL-0175_LatLon0.15_PT096H.grib2 2026-05-04 16:44 641K
20260504T12Z_MSC_GDPS_GeopotentialHeight_IsbL-0200_LatLon0.15_PT096H.grib2 2026-05-04 16:44 645K
20260504T12Z_MSC_GDPS_GeopotentialHeight_IsbL-0225_LatLon0.15_PT096H.grib2 2026-05-04 16:44 640K
20260504T12Z_MSC_GDPS_GeopotentialHeight_IsbL-0250_LatLon0.15_PT096H.grib2 2026-05-04 16:44 647K
20260504T12Z_MSC_GDPS_GeopotentialHeight_IsbL-0275_LatLon0.15_PT096H.grib2 2026-05-04 16:44 644K
20260504T12Z_MSC_GDPS_GeopotentialHeight_IsbL-0300_LatLon0.15_PT096H.grib2 2026-05-04 16:44 644K
20260504T12Z_MSC_GDPS_GeopotentialHeight_IsbL-0350_LatLon0.15_PT096H.grib2 2026-05-04 16:44 632K
20260504T12Z_MSC_GDPS_GeopotentialHeight_IsbL-0400_LatLon0.15_PT096H.grib2 2026-05-04 16:44 624K
20260504T12Z_MSC_GDPS_GeopotentialHeight_IsbL-0450_LatLon0.15_PT096H.grib2 2026-05-04 16:44 614K
20260504T12Z_MSC_GDPS_GeopotentialHeight_IsbL-0500_LatLon0.15_PT096H.grib2 2026-05-04 16:44 534K
20260504T12Z_MSC_GDPS_GeopotentialHeight_IsbL-0550_LatLon0.15_PT096H.grib2 2026-05-04 16:44 527K
20260504T12Z_MSC_GDPS_GeopotentialHeight_IsbL-0600_LatLon0.15_PT096H.grib2 2026-05-04 16:44 692K
20260504T12Z_MSC_GDPS_GeopotentialHeight_IsbL-0650_LatLon0.15_PT096H.grib2 2026-05-04 16:44 692K
20260504T12Z_MSC_GDPS_GeopotentialHeight_IsbL-0700_LatLon0.15_PT096H.grib2 2026-05-04 16:44 688K
20260504T12Z_MSC_GDPS_GeopotentialHeight_IsbL-0750_LatLon0.15_PT096H.grib2 2026-05-04 16:44 695K
20260504T12Z_MSC_GDPS_GeopotentialHeight_IsbL-0800_LatLon0.15_PT096H.grib2 2026-05-04 16:44 710K
20260504T12Z_MSC_GDPS_GeopotentialHeight_IsbL-0850_LatLon0.15_PT096H.grib2 2026-05-04 16:44 717K
20260504T12Z_MSC_GDPS_GeopotentialHeight_IsbL-0875_LatLon0.15_PT096H.grib2 2026-05-04 16:44 722K
20260504T12Z_MSC_GDPS_GeopotentialHeight_IsbL-0900_LatLon0.15_PT096H.grib2 2026-05-04 16:44 730K
20260504T12Z_MSC_GDPS_GeopotentialHeight_IsbL-0925_LatLon0.15_PT096H.grib2 2026-05-04 16:44 736K
20260504T12Z_MSC_GDPS_GeopotentialHeight_IsbL-0950_LatLon0.15_PT096H.grib2 2026-05-04 16:44 742K
20260504T12Z_MSC_GDPS_GeopotentialHeight_IsbL-0970_LatLon0.15_PT096H.grib2 2026-05-04 16:44 752K
20260504T12Z_MSC_GDPS_GeopotentialHeight_IsbL-0985_LatLon0.15_PT096H.grib2 2026-05-04 16:44 767K
20260504T12Z_MSC_GDPS_GeopotentialHeight_IsbL-1000_LatLon0.15_PT096H.grib2 2026-05-04 16:44 788K
20260504T12Z_MSC_GDPS_GeopotentialHeight_IsbL-1015_LatLon0.15_PT096H.grib2 2026-05-04 16:44 809K
20260504T12Z_MSC_GDPS_IcePellets-Accum12h_Sfc_LatLon0.15_PT096H.grib2 2026-05-04 16:44 28K
20260504T12Z_MSC_GDPS_IcePellets-Accum1h_Sfc_LatLon0.15_PT096H.grib2 2026-05-04 16:44 11K
20260504T12Z_MSC_GDPS_IcePellets-Accum24h_Sfc_LatLon0.15_PT096H.grib2 2026-05-04 16:44 46K
20260504T12Z_MSC_GDPS_IcePellets-Accum3h_Sfc_LatLon0.15_PT096H.grib2 2026-05-04 16:44 15K
20260504T12Z_MSC_GDPS_IcePellets-Accum6h_Sfc_LatLon0.15_PT096H.grib2 2026-05-04 16:44 21K
20260504T12Z_MSC_GDPS_IcePellets-Accum_Sfc_LatLon0.15_PT096H.grib2 2026-05-04 16:44 102K
20260504T12Z_MSC_GDPS_KIndex_Sfc_LatLon0.15_PT096H.grib2 2026-05-04 16:44 6.5M
20260504T12Z_MSC_GDPS_LatentHeatNetFlux_Sfc_LatLon0.15_PT096H.grib2 2026-05-04 16:44 733K
20260504T12Z_MSC_GDPS_LiftedIndex-MU-VT_IsbL-0500_LatLon0.15_PT096H.grib2 2026-05-04 16:44 5.4M
20260504T12Z_MSC_GDPS_NetLongwaveRadiationFlux-Accum_Sfc_LatLon0.15_PT096H.grib2 2026-05-04 16:44 964K
20260504T12Z_MSC_GDPS_NetShortwaveRadiationFlux-Accum_Sfc_LatLon0.15_PT096H.grib2 2026-05-04 16:44 924K
20260504T12Z_MSC_GDPS_O3MixingRatio_Sfc_LatLon0.15_PT096H.grib2 2026-05-04 17:18 1.9M
20260504T12Z_MSC_GDPS_O3_EAtm_LatLon0.15_PT096H.grib2 2026-05-04 17:18 2.4M
20260504T12Z_MSC_GDPS_PlanetaryBoundaryLayerHeight_Sfc_LatLon0.15_PT096H.grib2 2026-05-04 16:44 2.5M
20260504T12Z_MSC_GDPS_Precip-Accum12h_Sfc_LatLon0.15_PT096H.grib2 2026-05-04 16:44 4.1M
20260504T12Z_MSC_GDPS_Precip-Accum1h_Sfc_LatLon0.15_PT096H.grib2 2026-05-04 16:44 3.3M
20260504T12Z_MSC_GDPS_Precip-Accum24h_Sfc_LatLon0.15_PT096H.grib2 2026-05-04 16:44 4.6M
20260504T12Z_MSC_GDPS_Precip-Accum3h_Sfc_LatLon0.15_PT096H.grib2 2026-05-04 16:44 3.5M
20260504T12Z_MSC_GDPS_Precip-Accum6h_Sfc_LatLon0.15_PT096H.grib2 2026-05-04 16:44 4.0M
20260504T12Z_MSC_GDPS_Precip-Accum_Sfc_LatLon0.15_PT096H.grib2 2026-05-04 16:44 5.0M
20260504T12Z_MSC_GDPS_PrecipRate_Sfc_LatLon0.15_PT096H.grib2 2026-05-04 16:44 3.2M
20260504T12Z_MSC_GDPS_PrecipType-Instant_Sfc_LatLon0.15_PT096H.grib2 2026-05-04 16:44 1.6M
20260504T12Z_MSC_GDPS_Pressure_MSL_LatLon0.15_PT096H.grib2 2026-05-04 16:44 724K
20260504T12Z_MSC_GDPS_Pressure_Sfc_LatLon0.15_PT096H.grib2 2026-05-04 16:44 1.1M
20260504T12Z_MSC_GDPS_RadiativeTemp_Sfc_LatLon0.15_PT096H.grib2 2026-05-04 16:44 500K
20260504T12Z_MSC_GDPS_Rain-Accum12h_Sfc_LatLon0.15_PT096H.grib2 2026-05-04 16:44 2.8M
20260504T12Z_MSC_GDPS_Rain-Accum1h_Sfc_LatLon0.15_PT096H.grib2 2026-05-04 16:44 1.7M
20260504T12Z_MSC_GDPS_Rain-Accum24h_Sfc_LatLon0.15_PT096H.grib2 2026-05-04 16:44 3.2M
20260504T12Z_MSC_GDPS_Rain-Accum3h_Sfc_LatLon0.15_PT096H.grib2 2026-05-04 16:44 1.9M
20260504T12Z_MSC_GDPS_Rain-Accum6h_Sfc_LatLon0.15_PT096H.grib2 2026-05-04 16:44 2.5M
20260504T12Z_MSC_GDPS_Rain-Accum_Sfc_LatLon0.15_PT096H.grib2 2026-05-04 16:44 3.9M
20260504T12Z_MSC_GDPS_RelativeHumidity_AGL-2m_LatLon0.15_PT096H.grib2 2026-05-04 16:44 1.1M
20260504T12Z_MSC_GDPS_RelativeHumidity_IsbL-0010_LatLon0.15_PT096H.grib2 2026-05-04 16:44 141K
20260504T12Z_MSC_GDPS_RelativeHumidity_IsbL-0020_LatLon0.15_PT096H.grib2 2026-05-04 16:44 168K
20260504T12Z_MSC_GDPS_RelativeHumidity_IsbL-0030_LatLon0.15_PT096H.grib2 2026-05-04 16:44 267K
20260504T12Z_MSC_GDPS_RelativeHumidity_IsbL-0050_LatLon0.15_PT096H.grib2 2026-05-04 16:44 334K
20260504T12Z_MSC_GDPS_RelativeHumidity_IsbL-0100_LatLon0.15_PT096H.grib2 2026-05-04 16:44 502K
20260504T12Z_MSC_GDPS_RelativeHumidity_IsbL-0150_LatLon0.15_PT096H.grib2 2026-05-04 16:44 678K
20260504T12Z_MSC_GDPS_RelativeHumidity_IsbL-0175_LatLon0.15_PT096H.grib2 2026-05-04 16:44 797K
20260504T12Z_MSC_GDPS_RelativeHumidity_IsbL-0200_LatLon0.15_PT096H.grib2 2026-05-04 16:44 714K
20260504T12Z_MSC_GDPS_RelativeHumidity_IsbL-0225_LatLon0.15_PT096H.grib2 2026-05-04 16:44 795K
20260504T12Z_MSC_GDPS_RelativeHumidity_IsbL-0250_LatLon0.15_PT096H.grib2 2026-05-04 16:44 865K
20260504T12Z_MSC_GDPS_RelativeHumidity_IsbL-0275_LatLon0.15_PT096H.grib2 2026-05-04 16:44 887K
20260504T12Z_MSC_GDPS_RelativeHumidity_IsbL-0300_LatLon0.15_PT096H.grib2 2026-05-04 16:44 928K
20260504T12Z_MSC_GDPS_RelativeHumidity_IsbL-0350_LatLon0.15_PT096H.grib2 2026-05-04 16:44 947K
20260504T12Z_MSC_GDPS_RelativeHumidity_IsbL-0400_LatLon0.15_PT096H.grib2 2026-05-04 16:44 968K
20260504T12Z_MSC_GDPS_RelativeHumidity_IsbL-0450_LatLon0.15_PT096H.grib2 2026-05-04 16:44 1.0M
20260504T12Z_MSC_GDPS_RelativeHumidity_IsbL-0500_LatLon0.15_PT096H.grib2 2026-05-04 16:44 1.0M
20260504T12Z_MSC_GDPS_RelativeHumidity_IsbL-0550_LatLon0.15_PT096H.grib2 2026-05-04 16:44 1.0M
20260504T12Z_MSC_GDPS_RelativeHumidity_IsbL-0600_LatLon0.15_PT096H.grib2 2026-05-04 16:44 1.0M
20260504T12Z_MSC_GDPS_RelativeHumidity_IsbL-0650_LatLon0.15_PT096H.grib2 2026-05-04 16:44 1.1M
20260504T12Z_MSC_GDPS_RelativeHumidity_IsbL-0700_LatLon0.15_PT096H.grib2 2026-05-04 16:44 1.1M
20260504T12Z_MSC_GDPS_RelativeHumidity_IsbL-0750_LatLon0.15_PT096H.grib2 2026-05-04 16:44 1.2M
20260504T12Z_MSC_GDPS_RelativeHumidity_IsbL-0800_LatLon0.15_PT096H.grib2 2026-05-04 16:44 1.2M
20260504T12Z_MSC_GDPS_RelativeHumidity_IsbL-0850_LatLon0.15_PT096H.grib2 2026-05-04 16:44 1.3M
20260504T12Z_MSC_GDPS_RelativeHumidity_IsbL-0875_LatLon0.15_PT096H.grib2 2026-05-04 16:44 1.3M
20260504T12Z_MSC_GDPS_RelativeHumidity_IsbL-0900_LatLon0.15_PT096H.grib2 2026-05-04 16:44 1.2M
20260504T12Z_MSC_GDPS_RelativeHumidity_IsbL-0925_LatLon0.15_PT096H.grib2 2026-05-04 16:44 1.2M
20260504T12Z_MSC_GDPS_RelativeHumidity_IsbL-0950_LatLon0.15_PT096H.grib2 2026-05-04 16:44 1.2M
20260504T12Z_MSC_GDPS_RelativeHumidity_IsbL-0970_LatLon0.15_PT096H.grib2 2026-05-04 16:44 1.2M
20260504T12Z_MSC_GDPS_RelativeHumidity_IsbL-0985_LatLon0.15_PT096H.grib2 2026-05-04 16:44 1.1M
20260504T12Z_MSC_GDPS_RelativeHumidity_IsbL-1000_LatLon0.15_PT096H.grib2 2026-05-04 16:44 1.1M
20260504T12Z_MSC_GDPS_RelativeHumidity_IsbL-1015_LatLon0.15_PT096H.grib2 2026-05-04 16:44 1.0M
20260504T12Z_MSC_GDPS_RelativeVorticity_IsbL-0200_LatLon0.15_PT096H.grib2 2026-05-04 16:44 1.2M
20260504T12Z_MSC_GDPS_RelativeVorticity_IsbL-0250_LatLon0.15_PT096H.grib2 2026-05-04 16:44 1.3M
20260504T12Z_MSC_GDPS_RelativeVorticity_IsbL-0500_LatLon0.15_PT096H.grib2 2026-05-04 16:44 1.2M
20260504T12Z_MSC_GDPS_RelativeVorticity_IsbL-0700_LatLon0.15_PT096H.grib2 2026-05-04 16:44 1.3M
20260504T12Z_MSC_GDPS_RelativeVorticity_IsbL-0850_LatLon0.15_PT096H.grib2 2026-05-04 16:44 1.6M
20260504T12Z_MSC_GDPS_Runoff-Accum_Sfc_LatLon0.15_PT096H.grib2 2026-05-04 16:44 127K
20260504T12Z_MSC_GDPS_SensibleHeatNetFlux_Sfc_LatLon0.15_PT096H.grib2 2026-05-04 16:44 491K
20260504T12Z_MSC_GDPS_ShowalterIndex_IsbL-0500_LatLon0.15_PT096H.grib2 2026-05-04 16:44 6.2M
20260504T12Z_MSC_GDPS_Snow-Accum12h_Sfc_LatLon0.15_PT096H.grib2 2026-05-04 16:44 1.5M
20260504T12Z_MSC_GDPS_Snow-Accum1h_Sfc_LatLon0.15_PT096H.grib2 2026-05-04 16:44 1.0M
20260504T12Z_MSC_GDPS_Snow-Accum24h_Sfc_LatLon0.15_PT096H.grib2 2026-05-04 16:44 1.6M
20260504T12Z_MSC_GDPS_Snow-Accum3h_Sfc_LatLon0.15_PT096H.grib2 2026-05-04 16:44 1.0M
20260504T12Z_MSC_GDPS_Snow-Accum6h_Sfc_LatLon0.15_PT096H.grib2 2026-05-04 16:44 1.4M
20260504T12Z_MSC_GDPS_Snow-Accum_Sfc_LatLon0.15_PT096H.grib2 2026-05-04 16:44 2.0M
20260504T12Z_MSC_GDPS_SnowDensity_Sfc_LatLon0.15_PT096H.grib2 2026-05-04 16:44 258K
20260504T12Z_MSC_GDPS_SnowDepth_Sfc_LatLon0.15_PT096H.grib2 2026-05-04 16:44 1.7M
20260504T12Z_MSC_GDPS_SoilTemp_DBS-0to10cm_LatLon0.15_PT096H.grib2 2026-05-04 16:44 512K
20260504T12Z_MSC_GDPS_SoilTemp_Sfc_LatLon0.15_PT096H.grib2 2026-05-04 16:44 576K
20260504T12Z_MSC_GDPS_SoilVolumetricIceContent_Sfc_LatLon0.15_PT096H.grib2 2026-05-04 16:44 183K
20260504T12Z_MSC_GDPS_SoilVolumetricWaterContent_DBS-0to10cm_LatLon0.15_PT096H.grib2 2026-05-04 16:44 597K
20260504T12Z_MSC_GDPS_SoilVolumetricWaterContent_DBS-0to1cm_LatLon0.15_PT096H.grib2 2026-05-04 16:44 653K
20260504T12Z_MSC_GDPS_SpecificHumidity_AGL-120m_LatLon0.15_PT096H.grib2 2026-05-04 16:44 1.1M
20260504T12Z_MSC_GDPS_SpecificHumidity_AGL-2m_LatLon0.15_PT096H.grib2 2026-05-04 16:44 1.2M
20260504T12Z_MSC_GDPS_SpecificHumidity_AGL-40m_LatLon0.15_PT096H.grib2 2026-05-04 16:44 1.1M
20260504T12Z_MSC_GDPS_SpecificHumidity_AGL-80m_LatLon0.15_PT096H.grib2 2026-05-04 16:44 1.1M
20260504T12Z_MSC_GDPS_SpecificHumidity_IsbL-0001_LatLon0.15_PT096H.grib2 2026-05-04 16:44 1.3M
20260504T12Z_MSC_GDPS_SpecificHumidity_IsbL-0005_LatLon0.15_PT096H.grib2 2026-05-04 16:44 1.2M
20260504T12Z_MSC_GDPS_SpecificHumidity_IsbL-0010_LatLon0.15_PT096H.grib2 2026-05-04 16:44 1.3M
20260504T12Z_MSC_GDPS_SpecificHumidity_IsbL-0020_LatLon0.15_PT096H.grib2 2026-05-04 16:44 1.3M
20260504T12Z_MSC_GDPS_SpecificHumidity_IsbL-0030_LatLon0.15_PT096H.grib2 2026-05-04 16:44 1.3M
20260504T12Z_MSC_GDPS_SpecificHumidity_IsbL-0050_LatLon0.15_PT096H.grib2 2026-05-04 16:44 1.6M
20260504T12Z_MSC_GDPS_SpecificHumidity_IsbL-0100_LatLon0.15_PT096H.grib2 2026-05-04 16:44 1.3M
20260504T12Z_MSC_GDPS_SpecificHumidity_IsbL-0150_LatLon0.15_PT096H.grib2 2026-05-04 16:44 1.3M
20260504T12Z_MSC_GDPS_SpecificHumidity_IsbL-0175_LatLon0.15_PT096H.grib2 2026-05-04 16:44 1.3M
20260504T12Z_MSC_GDPS_SpecificHumidity_IsbL-0200_LatLon0.15_PT096H.grib2 2026-05-04 16:44 1.3M
20260504T12Z_MSC_GDPS_SpecificHumidity_IsbL-0225_LatLon0.15_PT096H.grib2 2026-05-04 16:44 1.3M
20260504T12Z_MSC_GDPS_SpecificHumidity_IsbL-0250_LatLon0.15_PT096H.grib2 2026-05-04 16:44 1.2M
20260504T12Z_MSC_GDPS_SpecificHumidity_IsbL-0275_LatLon0.15_PT096H.grib2 2026-05-04 16:44 1.3M
20260504T12Z_MSC_GDPS_SpecificHumidity_IsbL-0300_LatLon0.15_PT096H.grib2 2026-05-04 16:44 1.3M
20260504T12Z_MSC_GDPS_SpecificHumidity_IsbL-0350_LatLon0.15_PT096H.grib2 2026-05-04 16:44 1.2M
20260504T12Z_MSC_GDPS_SpecificHumidity_IsbL-0400_LatLon0.15_PT096H.grib2 2026-05-04 16:44 1.5M
20260504T12Z_MSC_GDPS_SpecificHumidity_IsbL-0450_LatLon0.15_PT096H.grib2 2026-05-04 16:44 1.3M
20260504T12Z_MSC_GDPS_SpecificHumidity_IsbL-0500_LatLon0.15_PT096H.grib2 2026-05-04 16:44 1.4M
20260504T12Z_MSC_GDPS_SpecificHumidity_IsbL-0550_LatLon0.15_PT096H.grib2 2026-05-04 16:44 1.6M
20260504T12Z_MSC_GDPS_SpecificHumidity_IsbL-0600_LatLon0.15_PT096H.grib2 2026-05-04 16:44 1.4M
20260504T12Z_MSC_GDPS_SpecificHumidity_IsbL-0650_LatLon0.15_PT096H.grib2 2026-05-04 16:44 1.5M
20260504T12Z_MSC_GDPS_SpecificHumidity_IsbL-0700_LatLon0.15_PT096H.grib2 2026-05-04 16:44 1.6M
20260504T12Z_MSC_GDPS_SpecificHumidity_IsbL-0750_LatLon0.15_PT096H.grib2 2026-05-04 16:44 1.7M
20260504T12Z_MSC_GDPS_SpecificHumidity_IsbL-0800_LatLon0.15_PT096H.grib2 2026-05-04 16:44 1.9M
20260504T12Z_MSC_GDPS_SpecificHumidity_IsbL-0850_LatLon0.15_PT096H.grib2 2026-05-04 16:44 2.0M
20260504T12Z_MSC_GDPS_SpecificHumidity_IsbL-0875_LatLon0.15_PT096H.grib2 2026-05-04 16:44 2.0M
20260504T12Z_MSC_GDPS_SpecificHumidity_IsbL-0900_LatLon0.15_PT096H.grib2 2026-05-04 16:44 1.6M
20260504T12Z_MSC_GDPS_SpecificHumidity_IsbL-0925_LatLon0.15_PT096H.grib2 2026-05-04 16:44 1.6M
20260504T12Z_MSC_GDPS_SpecificHumidity_IsbL-0950_LatLon0.15_PT096H.grib2 2026-05-04 16:44 1.6M
20260504T12Z_MSC_GDPS_SpecificHumidity_IsbL-0970_LatLon0.15_PT096H.grib2 2026-05-04 16:44 1.6M
20260504T12Z_MSC_GDPS_SpecificHumidity_IsbL-0985_LatLon0.15_PT096H.grib2 2026-05-04 16:44 1.5M
20260504T12Z_MSC_GDPS_SpecificHumidity_IsbL-1000_LatLon0.15_PT096H.grib2 2026-05-04 16:44 1.5M
20260504T12Z_MSC_GDPS_SpecificHumidity_IsbL-1015_LatLon0.15_PT096H.grib2 2026-05-04 16:44 1.5M
20260504T12Z_MSC_GDPS_SpecificHumidity_Sfc_LatLon0.15_PT096H.grib2 2026-05-04 16:44 687K
20260504T12Z_MSC_GDPS_Thickness_IsbL-0850to0700_LatLon0.15_PT096H.grib2 2026-05-04 16:44 475K
20260504T12Z_MSC_GDPS_Thickness_IsbL-1000to0500_LatLon0.15_PT096H.grib2 2026-05-04 16:44 374K
20260504T12Z_MSC_GDPS_Thickness_IsbL-1000to0850_LatLon0.15_PT096H.grib2 2026-05-04 16:44 493K
20260504T12Z_MSC_GDPS_TotalCloudCover_Sfc_LatLon0.15_PT096H.grib2 2026-05-04 16:44 823K
20260504T12Z_MSC_GDPS_TotalTotalsIndex_Sfc_LatLon0.15_PT096H.grib2 2026-05-04 16:44 6.2M
20260504T12Z_MSC_GDPS_UVIndex-ClearSky_Sfc_LatLon0.15_PT096H.grib2 2026-05-04 17:18 1.0M
20260504T12Z_MSC_GDPS_UVIndex_Sfc_LatLon0.15_PT096H.grib2 2026-05-04 17:18 1.5M
20260504T12Z_MSC_GDPS_UpwardLongwaveRadiationFlux_NTAtm_LatLon0.15_PT096H.grib2 2026-05-04 16:44 839K
20260504T12Z_MSC_GDPS_VerticalVelocity_IsbL-0200_LatLon0.15_PT096H.grib2 2026-05-04 16:44 1.2M
20260504T12Z_MSC_GDPS_VerticalVelocity_IsbL-0250_LatLon0.15_PT096H.grib2 2026-05-04 16:44 1.1M
20260504T12Z_MSC_GDPS_VerticalVelocity_IsbL-0500_LatLon0.15_PT096H.grib2 2026-05-04 16:44 1.3M
20260504T12Z_MSC_GDPS_VerticalVelocity_IsbL-0600_LatLon0.15_PT096H.grib2 2026-05-04 16:44 1.1M
20260504T12Z_MSC_GDPS_VerticalVelocity_IsbL-0700_LatLon0.15_PT096H.grib2 2026-05-04 16:44 1.1M
20260504T12Z_MSC_GDPS_VerticalVelocity_IsbL-0850_LatLon0.15_PT096H.grib2 2026-05-04 16:44 1.6M
20260504T12Z_MSC_GDPS_WindChill_Sfc_LatLon0.15_PT096H.grib2 2026-05-04 16:44 5.3M
20260504T12Z_MSC_GDPS_WindDir_AGL-10m_LatLon0.15_PT096H.grib2 2026-05-04 16:44 1.3M
20260504T12Z_MSC_GDPS_WindDir_AGL-120m_LatLon0.15_PT096H.grib2 2026-05-04 16:44 1.3M
20260504T12Z_MSC_GDPS_WindDir_AGL-40m_LatLon0.15_PT096H.grib2 2026-05-04 16:44 1.4M
20260504T12Z_MSC_GDPS_WindDir_AGL-80m_LatLon0.15_PT096H.grib2 2026-05-04 16:44 1.4M
20260504T12Z_MSC_GDPS_WindDir_IsbL-0001_LatLon0.15_PT096H.grib2 2026-05-04 16:44 658K
20260504T12Z_MSC_GDPS_WindDir_IsbL-0005_LatLon0.15_PT096H.grib2 2026-05-04 16:44 831K
20260504T12Z_MSC_GDPS_WindDir_IsbL-0010_LatLon0.15_PT096H.grib2 2026-05-04 16:44 839K
20260504T12Z_MSC_GDPS_WindDir_IsbL-0020_LatLon0.15_PT096H.grib2 2026-05-04 16:44 939K
20260504T12Z_MSC_GDPS_WindDir_IsbL-0030_LatLon0.15_PT096H.grib2 2026-05-04 16:44 937K
20260504T12Z_MSC_GDPS_WindDir_IsbL-0050_LatLon0.15_PT096H.grib2 2026-05-04 16:44 950K
20260504T12Z_MSC_GDPS_WindDir_IsbL-0100_LatLon0.15_PT096H.grib2 2026-05-04 16:44 1.0M
20260504T12Z_MSC_GDPS_WindDir_IsbL-0150_LatLon0.15_PT096H.grib2 2026-05-04 16:44 1.0M
20260504T12Z_MSC_GDPS_WindDir_IsbL-0175_LatLon0.15_PT096H.grib2 2026-05-04 16:44 1.1M
20260504T12Z_MSC_GDPS_WindDir_IsbL-0200_LatLon0.15_PT096H.grib2 2026-05-04 16:44 1.1M
20260504T12Z_MSC_GDPS_WindDir_IsbL-0225_LatLon0.15_PT096H.grib2 2026-05-04 16:44 1.1M
20260504T12Z_MSC_GDPS_WindDir_IsbL-0250_LatLon0.15_PT096H.grib2 2026-05-04 16:44 1.1M
20260504T12Z_MSC_GDPS_WindDir_IsbL-0275_LatLon0.15_PT096H.grib2 2026-05-04 16:44 1.2M
20260504T12Z_MSC_GDPS_WindDir_IsbL-0300_LatLon0.15_PT096H.grib2 2026-05-04 16:44 1.2M
20260504T12Z_MSC_GDPS_WindDir_IsbL-0350_LatLon0.15_PT096H.grib2 2026-05-04 16:44 1.2M
20260504T12Z_MSC_GDPS_WindDir_IsbL-0400_LatLon0.15_PT096H.grib2 2026-05-04 16:44 1.3M
20260504T12Z_MSC_GDPS_WindDir_IsbL-0450_LatLon0.15_PT096H.grib2 2026-05-04 16:44 1.3M
20260504T12Z_MSC_GDPS_WindDir_IsbL-0500_LatLon0.15_PT096H.grib2 2026-05-04 16:44 1.4M
20260504T12Z_MSC_GDPS_WindDir_IsbL-0550_LatLon0.15_PT096H.grib2 2026-05-04 16:44 1.4M
20260504T12Z_MSC_GDPS_WindDir_IsbL-0600_LatLon0.15_PT096H.grib2 2026-05-04 16:44 1.4M
20260504T12Z_MSC_GDPS_WindDir_IsbL-0650_LatLon0.15_PT096H.grib2 2026-05-04 16:44 1.5M
20260504T12Z_MSC_GDPS_WindDir_IsbL-0700_LatLon0.15_PT096H.grib2 2026-05-04 16:44 1.6M
20260504T12Z_MSC_GDPS_WindDir_IsbL-0750_LatLon0.15_PT096H.grib2 2026-05-04 16:44 1.7M
20260504T12Z_MSC_GDPS_WindDir_IsbL-0800_LatLon0.15_PT096H.grib2 2026-05-04 16:44 1.8M
20260504T12Z_MSC_GDPS_WindDir_IsbL-0850_LatLon0.15_PT096H.grib2 2026-05-04 16:44 1.9M
20260504T12Z_MSC_GDPS_WindDir_IsbL-0875_LatLon0.15_PT096H.grib2 2026-05-04 16:44 1.9M
20260504T12Z_MSC_GDPS_WindDir_IsbL-0900_LatLon0.15_PT096H.grib2 2026-05-04 16:44 2.0M
20260504T12Z_MSC_GDPS_WindDir_IsbL-0925_LatLon0.15_PT096H.grib2 2026-05-04 16:44 2.0M
20260504T12Z_MSC_GDPS_WindDir_IsbL-0950_LatLon0.15_PT096H.grib2 2026-05-04 16:44 2.0M
20260504T12Z_MSC_GDPS_WindDir_IsbL-0970_LatLon0.15_PT096H.grib2 2026-05-04 16:44 2.0M
20260504T12Z_MSC_GDPS_WindDir_IsbL-0985_LatLon0.15_PT096H.grib2 2026-05-04 16:44 2.0M
20260504T12Z_MSC_GDPS_WindDir_IsbL-1000_LatLon0.15_PT096H.grib2 2026-05-04 16:44 2.0M
20260504T12Z_MSC_GDPS_WindDir_IsbL-1015_LatLon0.15_PT096H.grib2 2026-05-04 16:44 2.0M
20260504T12Z_MSC_GDPS_WindGust-Max_AGL-10m_LatLon0.15_PT096H.grib2 2026-05-04 16:44 2.2M
20260504T12Z_MSC_GDPS_WindGust-Min_AGL-10m_LatLon0.15_PT096H.grib2 2026-05-04 16:44 2.2M
20260504T12Z_MSC_GDPS_WindGust_AGL-10m_LatLon0.15_PT096H.grib2 2026-05-04 16:44 2.1M
20260504T12Z_MSC_GDPS_WindSpeed_AGL-10m_LatLon0.15_PT096H.grib2 2026-05-04 16:44 1.1M
20260504T12Z_MSC_GDPS_WindSpeed_AGL-120m_LatLon0.15_PT096H.grib2 2026-05-04 16:44 1.2M
20260504T12Z_MSC_GDPS_WindSpeed_AGL-40m_LatLon0.15_PT096H.grib2 2026-05-04 16:44 1.2M
20260504T12Z_MSC_GDPS_WindSpeed_AGL-80m_LatLon0.15_PT096H.grib2 2026-05-04 16:44 1.2M
20260504T12Z_MSC_GDPS_WindSpeed_IsbL-0001_LatLon0.15_PT096H.grib2 2026-05-04 16:44 651K
20260504T12Z_MSC_GDPS_WindSpeed_IsbL-0005_LatLon0.15_PT096H.grib2 2026-05-04 16:44 698K
20260504T12Z_MSC_GDPS_WindSpeed_IsbL-0010_LatLon0.15_PT096H.grib2 2026-05-04 16:44 630K
20260504T12Z_MSC_GDPS_WindSpeed_IsbL-0020_LatLon0.15_PT096H.grib2 2026-05-04 16:44 665K
20260504T12Z_MSC_GDPS_WindSpeed_IsbL-0030_LatLon0.15_PT096H.grib2 2026-05-04 16:44 670K
20260504T12Z_MSC_GDPS_WindSpeed_IsbL-0050_LatLon0.15_PT096H.grib2 2026-05-04 16:44 899K
20260504T12Z_MSC_GDPS_WindSpeed_IsbL-0100_LatLon0.15_PT096H.grib2 2026-05-04 16:44 1.1M
20260504T12Z_MSC_GDPS_WindSpeed_IsbL-0150_LatLon0.15_PT096H.grib2 2026-05-04 16:44 1.0M
20260504T12Z_MSC_GDPS_WindSpeed_IsbL-0175_LatLon0.15_PT096H.grib2 2026-05-04 16:44 1.0M
20260504T12Z_MSC_GDPS_WindSpeed_IsbL-0200_LatLon0.15_PT096H.grib2 2026-05-04 16:44 1.1M
20260504T12Z_MSC_GDPS_WindSpeed_IsbL-0225_LatLon0.15_PT096H.grib2 2026-05-04 16:44 1.1M
20260504T12Z_MSC_GDPS_WindSpeed_IsbL-0250_LatLon0.15_PT096H.grib2 2026-05-04 16:44 1.1M
20260504T12Z_MSC_GDPS_WindSpeed_IsbL-0275_LatLon0.15_PT096H.grib2 2026-05-04 16:44 1.1M
20260504T12Z_MSC_GDPS_WindSpeed_IsbL-0300_LatLon0.15_PT096H.grib2 2026-05-04 16:44 1.1M
20260504T12Z_MSC_GDPS_WindSpeed_IsbL-0350_LatLon0.15_PT096H.grib2 2026-05-04 16:44 1.1M
20260504T12Z_MSC_GDPS_WindSpeed_IsbL-0400_LatLon0.15_PT096H.grib2 2026-05-04 16:44 1.1M
20260504T12Z_MSC_GDPS_WindSpeed_IsbL-0450_LatLon0.15_PT096H.grib2 2026-05-04 16:44 1.1M
20260504T12Z_MSC_GDPS_WindSpeed_IsbL-0500_LatLon0.15_PT096H.grib2 2026-05-04 16:44 1.1M
20260504T12Z_MSC_GDPS_WindSpeed_IsbL-0550_LatLon0.15_PT096H.grib2 2026-05-04 16:44 1.1M
20260504T12Z_MSC_GDPS_WindSpeed_IsbL-0600_LatLon0.15_PT096H.grib2 2026-05-04 16:44 1.1M
20260504T12Z_MSC_GDPS_WindSpeed_IsbL-0650_LatLon0.15_PT096H.grib2 2026-05-04 16:44 1.4M
20260504T12Z_MSC_GDPS_WindSpeed_IsbL-0700_LatLon0.15_PT096H.grib2 2026-05-04 16:44 1.5M
20260504T12Z_MSC_GDPS_WindSpeed_IsbL-0750_LatLon0.15_PT096H.grib2 2026-05-04 16:44 1.6M
20260504T12Z_MSC_GDPS_WindSpeed_IsbL-0800_LatLon0.15_PT096H.grib2 2026-05-04 16:44 1.7M
20260504T12Z_MSC_GDPS_WindSpeed_IsbL-0850_LatLon0.15_PT096H.grib2 2026-05-04 16:44 1.7M
20260504T12Z_MSC_GDPS_WindSpeed_IsbL-0875_LatLon0.15_PT096H.grib2 2026-05-04 16:44 1.8M
20260504T12Z_MSC_GDPS_WindSpeed_IsbL-0900_LatLon0.15_PT096H.grib2 2026-05-04 16:44 1.8M
20260504T12Z_MSC_GDPS_WindSpeed_IsbL-0925_LatLon0.15_PT096H.grib2 2026-05-04 16:44 1.9M
20260504T12Z_MSC_GDPS_WindSpeed_IsbL-0950_LatLon0.15_PT096H.grib2 2026-05-04 16:44 1.9M
20260504T12Z_MSC_GDPS_WindSpeed_IsbL-0970_LatLon0.15_PT096H.grib2 2026-05-04 16:44 1.8M
20260504T12Z_MSC_GDPS_WindSpeed_IsbL-0985_LatLon0.15_PT096H.grib2 2026-05-04 16:44 1.8M
20260504T12Z_MSC_GDPS_WindSpeed_IsbL-1000_LatLon0.15_PT096H.grib2 2026-05-04 16:44 1.8M
20260504T12Z_MSC_GDPS_WindSpeed_IsbL-1015_LatLon0.15_PT096H.grib2 2026-05-04 16:44 1.8M
20260504T12Z_MSC_GDPS_WindU_AGL-10m_LatLon0.15_PT096H.grib2 2026-05-04 16:44 1.6M
20260504T12Z_MSC_GDPS_WindU_AGL-120m_LatLon0.15_PT096H.grib2 2026-05-04 16:44 961K
20260504T12Z_MSC_GDPS_WindU_AGL-40m_LatLon0.15_PT096H.grib2 2026-05-04 16:44 958K
20260504T12Z_MSC_GDPS_WindU_AGL-80m_LatLon0.15_PT096H.grib2 2026-05-04 16:44 962K
20260504T12Z_MSC_GDPS_WindU_IsbL-0001_LatLon0.15_PT096H.grib2 2026-05-04 16:44 506K
20260504T12Z_MSC_GDPS_WindU_IsbL-0005_LatLon0.15_PT096H.grib2 2026-05-04 16:44 697K
20260504T12Z_MSC_GDPS_WindU_IsbL-0010_LatLon0.15_PT096H.grib2 2026-05-04 16:44 705K
20260504T12Z_MSC_GDPS_WindU_IsbL-0020_LatLon0.15_PT096H.grib2 2026-05-04 16:44 733K
20260504T12Z_MSC_GDPS_WindU_IsbL-0030_LatLon0.15_PT096H.grib2 2026-05-04 16:44 742K
20260504T12Z_MSC_GDPS_WindU_IsbL-0050_LatLon0.15_PT096H.grib2 2026-05-04 16:44 764K
20260504T12Z_MSC_GDPS_WindU_IsbL-0100_LatLon0.15_PT096H.grib2 2026-05-04 16:44 859K
20260504T12Z_MSC_GDPS_WindU_IsbL-0150_LatLon0.15_PT096H.grib2 2026-05-04 16:44 1.0M
20260504T12Z_MSC_GDPS_WindU_IsbL-0175_LatLon0.15_PT096H.grib2 2026-05-04 16:44 1.0M
20260504T12Z_MSC_GDPS_WindU_IsbL-0200_LatLon0.15_PT096H.grib2 2026-05-04 16:44 1.0M
20260504T12Z_MSC_GDPS_WindU_IsbL-0225_LatLon0.15_PT096H.grib2 2026-05-04 16:44 850K
20260504T12Z_MSC_GDPS_WindU_IsbL-0250_LatLon0.15_PT096H.grib2 2026-05-04 16:44 850K
20260504T12Z_MSC_GDPS_WindU_IsbL-0275_LatLon0.15_PT096H.grib2 2026-05-04 16:44 933K
20260504T12Z_MSC_GDPS_WindU_IsbL-0300_LatLon0.15_PT096H.grib2 2026-05-04 16:44 924K
20260504T12Z_MSC_GDPS_WindU_IsbL-0350_LatLon0.15_PT096H.grib2 2026-05-04 16:44 882K
20260504T12Z_MSC_GDPS_WindU_IsbL-0400_LatLon0.15_PT096H.grib2 2026-05-04 16:44 888K
20260504T12Z_MSC_GDPS_WindU_IsbL-0450_LatLon0.15_PT096H.grib2 2026-05-04 16:44 1.1M
20260504T12Z_MSC_GDPS_WindU_IsbL-0500_LatLon0.15_PT096H.grib2 2026-05-04 16:44 1.1M
20260504T12Z_MSC_GDPS_WindU_IsbL-0550_LatLon0.15_PT096H.grib2 2026-05-04 16:44 1.1M
20260504T12Z_MSC_GDPS_WindU_IsbL-0600_LatLon0.15_PT096H.grib2 2026-05-04 16:44 1.1M
20260504T12Z_MSC_GDPS_WindU_IsbL-0650_LatLon0.15_PT096H.grib2 2026-05-04 16:44 1.2M
20260504T12Z_MSC_GDPS_WindU_IsbL-0700_LatLon0.15_PT096H.grib2 2026-05-04 16:44 1.2M
20260504T12Z_MSC_GDPS_WindU_IsbL-0750_LatLon0.15_PT096H.grib2 2026-05-04 16:44 1.3M
20260504T12Z_MSC_GDPS_WindU_IsbL-0800_LatLon0.15_PT096H.grib2 2026-05-04 16:44 1.4M
20260504T12Z_MSC_GDPS_WindU_IsbL-0850_LatLon0.15_PT096H.grib2 2026-05-04 16:44 1.4M
20260504T12Z_MSC_GDPS_WindU_IsbL-0875_LatLon0.15_PT096H.grib2 2026-05-04 16:44 1.5M
20260504T12Z_MSC_GDPS_WindU_IsbL-0900_LatLon0.15_PT096H.grib2 2026-05-04 16:44 1.5M
20260504T12Z_MSC_GDPS_WindU_IsbL-0925_LatLon0.15_PT096H.grib2 2026-05-04 16:44 1.5M
20260504T12Z_MSC_GDPS_WindU_IsbL-0950_LatLon0.15_PT096H.grib2 2026-05-04 16:44 1.4M
20260504T12Z_MSC_GDPS_WindU_IsbL-0970_LatLon0.15_PT096H.grib2 2026-05-04 16:44 1.4M
20260504T12Z_MSC_GDPS_WindU_IsbL-0985_LatLon0.15_PT096H.grib2 2026-05-04 16:44 1.4M
20260504T12Z_MSC_GDPS_WindU_IsbL-1000_LatLon0.15_PT096H.grib2 2026-05-04 16:44 1.7M
20260504T12Z_MSC_GDPS_WindU_IsbL-1015_LatLon0.15_PT096H.grib2 2026-05-04 16:44 1.6M
20260504T12Z_MSC_GDPS_WindV_AGL-10m_LatLon0.15_PT096H.grib2 2026-05-04 16:44 1.3M
20260504T12Z_MSC_GDPS_WindV_AGL-120m_LatLon0.15_PT096H.grib2 2026-05-04 16:44 963K
20260504T12Z_MSC_GDPS_WindV_AGL-40m_LatLon0.15_PT096H.grib2 2026-05-04 16:44 958K
20260504T12Z_MSC_GDPS_WindV_AGL-80m_LatLon0.15_PT096H.grib2 2026-05-04 16:44 963K
20260504T12Z_MSC_GDPS_WindV_IsbL-0001_LatLon0.15_PT096H.grib2 2026-05-04 16:44 789K
20260504T12Z_MSC_GDPS_WindV_IsbL-0005_LatLon0.15_PT096H.grib2 2026-05-04 16:44 866K
20260504T12Z_MSC_GDPS_WindV_IsbL-0010_LatLon0.15_PT096H.grib2 2026-05-04 16:44 801K
20260504T12Z_MSC_GDPS_WindV_IsbL-0020_LatLon0.15_PT096H.grib2 2026-05-04 16:44 851K
20260504T12Z_MSC_GDPS_WindV_IsbL-0030_LatLon0.15_PT096H.grib2 2026-05-04 16:44 856K
20260504T12Z_MSC_GDPS_WindV_IsbL-0050_LatLon0.15_PT096H.grib2 2026-05-04 16:44 899K
20260504T12Z_MSC_GDPS_WindV_IsbL-0100_LatLon0.15_PT096H.grib2 2026-05-04 16:44 849K
20260504T12Z_MSC_GDPS_WindV_IsbL-0150_LatLon0.15_PT096H.grib2 2026-05-04 16:44 1.0M
20260504T12Z_MSC_GDPS_WindV_IsbL-0175_LatLon0.15_PT096H.grib2 2026-05-04 16:44 1.0M
20260504T12Z_MSC_GDPS_WindV_IsbL-0200_LatLon0.15_PT096H.grib2 2026-05-04 16:44 843K
20260504T12Z_MSC_GDPS_WindV_IsbL-0225_LatLon0.15_PT096H.grib2 2026-05-04 16:44 848K
20260504T12Z_MSC_GDPS_WindV_IsbL-0250_LatLon0.15_PT096H.grib2 2026-05-04 16:44 907K
20260504T12Z_MSC_GDPS_WindV_IsbL-0275_LatLon0.15_PT096H.grib2 2026-05-04 16:44 929K
20260504T12Z_MSC_GDPS_WindV_IsbL-0300_LatLon0.15_PT096H.grib2 2026-05-04 16:44 920K
20260504T12Z_MSC_GDPS_WindV_IsbL-0350_LatLon0.15_PT096H.grib2 2026-05-04 16:44 874K
20260504T12Z_MSC_GDPS_WindV_IsbL-0400_LatLon0.15_PT096H.grib2 2026-05-04 16:44 877K
20260504T12Z_MSC_GDPS_WindV_IsbL-0450_LatLon0.15_PT096H.grib2 2026-05-04 16:44 1.1M
20260504T12Z_MSC_GDPS_WindV_IsbL-0500_LatLon0.15_PT096H.grib2 2026-05-04 16:44 1.1M
20260504T12Z_MSC_GDPS_WindV_IsbL-0550_LatLon0.15_PT096H.grib2 2026-05-04 16:44 1.1M
20260504T12Z_MSC_GDPS_WindV_IsbL-0600_LatLon0.15_PT096H.grib2 2026-05-04 16:44 1.1M
20260504T12Z_MSC_GDPS_WindV_IsbL-0650_LatLon0.15_PT096H.grib2 2026-05-04 16:44 1.2M
20260504T12Z_MSC_GDPS_WindV_IsbL-0700_LatLon0.15_PT096H.grib2 2026-05-04 16:44 1.2M
20260504T12Z_MSC_GDPS_WindV_IsbL-0750_LatLon0.15_PT096H.grib2 2026-05-04 16:44 1.3M
20260504T12Z_MSC_GDPS_WindV_IsbL-0800_LatLon0.15_PT096H.grib2 2026-05-04 16:44 1.3M
20260504T12Z_MSC_GDPS_WindV_IsbL-0850_LatLon0.15_PT096H.grib2 2026-05-04 16:44 1.4M
20260504T12Z_MSC_GDPS_WindV_IsbL-0875_LatLon0.15_PT096H.grib2 2026-05-04 16:44 1.4M
20260504T12Z_MSC_GDPS_WindV_IsbL-0900_LatLon0.15_PT096H.grib2 2026-05-04 16:44 1.5M
20260504T12Z_MSC_GDPS_WindV_IsbL-0925_LatLon0.15_PT096H.grib2 2026-05-04 16:44 1.4M
20260504T12Z_MSC_GDPS_WindV_IsbL-0950_LatLon0.15_PT096H.grib2 2026-05-04 16:44 1.4M
20260504T12Z_MSC_GDPS_WindV_IsbL-0970_LatLon0.15_PT096H.grib2 2026-05-04 16:44 1.4M
20260504T12Z_MSC_GDPS_WindV_IsbL-0985_LatLon0.15_PT096H.grib2 2026-05-04 16:44 1.4M
20260504T12Z_MSC_GDPS_WindV_IsbL-1000_LatLon0.15_PT096H.grib2 2026-05-04 16:44 1.4M
20260504T12Z_MSC_GDPS_WindV_IsbL-1015_LatLon0.15_PT096H.grib2 2026-05-04 16:44 1.3M